,,,PA_Meas_PMT16A,,PR_Meas_QMR101_102,,RH_Meas_QMH101,,SR_Meas_QMS101,,TA_Meas_QMH101,,GenWind,,GenWind,
date,time,status,PA,status,PR,status,RH,status,SR,status,TA,status,DirAvg,status,SpdAvg,
2014-04-22, 00:00:04,VALID,1011.23,VALID,0,VALID,99.7906,VALID,0,VALID,24.8244,VALID,2,VALID,0,
2014-04-22, 00:01:04,VALID,1011.22,VALID,0,VALID,99.9126,VALID,0,VALID,24.8244,VALID,2,VALID,0,
2014-04-22, 00:02:04,VALID,1011.22,VALID,0,VALID,99.8897,VALID,0,VALID,24.8049,VALID,2,VALID,0,
2014-04-22, 00:03:04,VALID,1011.22,VALID,0,VALID,100.058,VALID,0,VALID,24.8049,VALID,2,VALID,0,
2014-04-22, 00:04:04,VALID,1011.24,VALID,0,VALID,100.058,VALID,0,VALID,24.7835,VALID,2,VALID,0,
2014-04-22, 00:05:04,VALID,1011.21,VALID,0,VALID,100.141,VALID,0,VALID,24.7835,VALID,2,VALID,0,
2014-04-22, 00:06:04,VALID,1011.2,VALID,0,VALID,100.21,VALID,0,VALID,24.8049,VALID,2,VALID,0,
2014-04-22, 00:07:04,VALID,1011.18,VALID,0,VALID,100.263,VALID,0,VALID,24.7835,VALID,2,VALID,0,
2014-04-22, 00:08:04,VALID,1011.17,VALID,0,VALID,100.378,VALID,0.112112,VALID,24.7854,VALID,2,VALID,0,
2014-04-22, 00:09:04,VALID,1011.17,VALID,0,VALID,100.462,VALID,0,VALID,24.7854,VALID,2,VALID,0,
2014-04-22, 00:10:04,VALID,1011.19,VALID,0,VALID,100.53,VALID,0,VALID,24.7854,VALID,2,VALID,0,
2014-04-22, 00:11:04,VALID,1011.17,VALID,0,VALID,100.622,VALID,0,VALID,24.7854,VALID,2,VALID,0,
2014-04-22, 00:12:04,VALID,1011.18,VALID,0,VALID,100.774,VALID,0,VALID,24.7854,VALID,2,VALID,0,
2014-04-22, 00:13:04,VALID,1011.17,VALID,0,VALID,100.812,VALID,0,VALID,24.8067,VALID,2,VALID,0,
2014-04-22, 00:14:04,VALID,1011.14,VALID,0,VALID,100.866,VALID,0,VALID,24.7854,VALID,2,VALID,0,
2014-04-22, 00:15:04,VALID,1011.15,VALID,0,VALID,100.881,VALID,0,VALID,24.8049,VALID,2,VALID,0,
2014-04-22, 00:16:04,VALID,1011.13,VALID,0,VALID,100.805,VALID,0,VALID,24.8049,VALID,2,VALID,0,
2014-04-22, 00:17:04,VALID,1011.12,VALID,0,VALID,100.835,VALID,0,VALID,24.8049,VALID,2,VALID,0,
2014-04-22, 00:18:04,VALID,1011.08,VALID,0,VALID,100.881,VALID,0,VALID,24.8049,VALID,2,VALID,0,
2014-04-22, 00:19:04,VALID,1011.09,VALID,0,VALID,100.988,VALID,0,VALID,24.8049,VALID,2,VALID,0,
2014-04-22, 00:20:04,VALID,1011.07,VALID,0,VALID,100.835,VALID,0,VALID,24.8049,VALID,2,VALID,0,
2014-04-22, 00:21:04,VALID,1011.07,VALID,0,VALID,100.774,VALID,0,VALID,24.7854,VALID,2,VALID,0,
2014-04-22, 00:22:04,VALID,1011.03,VALID,0,VALID,100.706,VALID,0,VALID,24.7659,VALID,2,VALID,0,
2014-04-22, 00:23:04,VALID,1011,VALID,0,VALID,100.843,VALID,0,VALID,24.7872,VALID,2,VALID,0,
2014-04-22, 00:24:04,VALID,1010.98,VALID,0,VALID,100.851,VALID,0,VALID,24.7659,VALID,2,VALID,0,
2014-04-22, 00:25:04,VALID,1010.94,VALID,0,VALID,100.912,VALID,0,VALID,24.7854,VALID,2,VALID,0,
2014-04-22, 00:26:04,VALID,1010.94,VALID,0,VALID,100.965,VALID,0,VALID,24.7854,VALID,2,VALID,0,
2014-04-22, 00:27:04,VALID,1010.95,VALID,0,VALID,100.919,VALID,0,VALID,24.7659,VALID,2,VALID,0,
2014-04-22, 00:28:04,VALID,1010.92,VALID,0,VALID,101.034,VALID,0,VALID,24.7854,VALID,2,VALID,0,
2014-04-22, 00:29:04,VALID,1010.93,VALID,0,VALID,101.186,VALID,0,VALID,24.7854,VALID,2,VALID,0,
2014-04-22, 00:30:04,VALID,1010.94,VALID,0,VALID,101.255,VALID,0,VALID,24.7854,VALID,2,VALID,0,
2014-04-22, 00:31:04,VALID,1010.95,VALID,0,VALID,101.445,VALID,0,VALID,24.7854,VALID,2,VALID,0,
2014-04-22, 00:32:04,VALID,1010.97,VALID,0,VALID,101.613,VALID,0,VALID,24.8049,VALID,2,VALID,0,
2014-04-22, 00:33:04,VALID,1010.99,VALID,0,VALID,101.705,VALID,0,VALID,24.7854,VALID,2,VALID,0,
2014-04-22, 00:34:04,VALID,1010.96,VALID,0,VALID,101.667,VALID,0,VALID,24.8049,VALID,2,VALID,0,
2014-04-22, 00:35:04,VALID,1010.92,VALID,0,VALID,101.75,VALID,0,VALID,24.7854,VALID,2,VALID,0,
2014-04-22, 00:36:04,VALID,1010.92,VALID,0,VALID,101.857,VALID,0,VALID,24.7854,VALID,2,VALID,0,
2014-04-22, 00:37:04,VALID,1010.95,VALID,0,VALID,101.964,VALID,0,VALID,24.7659,VALID,2,VALID,0,
2014-04-22, 00:38:04,VALID,1010.93,VALID,0,VALID,102.162,VALID,0,VALID,24.7464,VALID,2,VALID,0,
2014-04-22, 00:39:04,VALID,1010.91,VALID,0,VALID,102.322,VALID,0,VALID,24.7269,VALID,2,VALID,0,
2014-04-22, 00:40:04,VALID,1010.89,VALID,0,VALID,102.566,VALID,0,VALID,24.7269,VALID,2,VALID,0,
2014-04-22, 00:41:04,VALID,1010.85,VALID,0,VALID,102.711,VALID,0,VALID,24.7074,VALID,2,VALID,0,
2014-04-22, 00:42:04,VALID,1010.84,VALID,0,VALID,102.803,VALID,0,VALID,24.6666,VALID,2,VALID,0,
2014-04-22, 00:43:04,VALID,1010.8,VALID,0,VALID,102.91,VALID,0,VALID,24.6489,VALID,2,VALID,0,
2014-04-22, 00:44:04,VALID,1010.82,VALID,0,VALID,103.1,VALID,0,VALID,24.6489,VALID,2,VALID,0,
2014-04-22, 00:45:04,VALID,1010.8,VALID,0,VALID,103.207,VALID,0,VALID,24.6489,VALID,2,VALID,0,
2014-04-22, 00:46:04,VALID,1010.8,VALID,0,VALID,103.474,VALID,0,VALID,24.6294,VALID,2,VALID,0,
2014-04-22, 00:47:04,VALID,1010.8,VALID,0,VALID,103.535,VALID,0,VALID,24.6099,VALID,2,VALID,0,
2014-04-22, 00:48:04,VALID,1010.78,VALID,0,VALID,103.619,VALID,0,VALID,24.5905,VALID,2,VALID,0,
2014-04-22, 00:49:04,VALID,1010.79,VALID,0,VALID,103.802,VALID,0,VALID,24.571,VALID,2,VALID,0,
2014-04-22, 00:50:04,VALID,1010.74,VALID,0,VALID,104,VALID,0,VALID,24.5923,VALID,2,VALID,0,
2014-04-22, 00:51:04,VALID,1010.71,VALID,0,VALID,104,VALID,0,VALID,24.5515,VALID,2,VALID,0,
2014-04-22, 00:52:04,VALID,1010.69,VALID,0,VALID,104,VALID,0,VALID,24.5728,VALID,2,VALID,0,
2014-04-22, 00:53:04,VALID,1010.67,VALID,0,VALID,104,VALID,0,VALID,24.5125,VALID,2,VALID,0,
2014-04-22, 00:54:04,VALID,1010.64,VALID,0,VALID,104,VALID,0,VALID,24.493,VALID,2,VALID,0,
2014-04-22, 00:55:04,VALID,1010.6,VALID,0,VALID,104,VALID,0,VALID,24.5144,VALID,2,VALID,0,
2014-04-22, 00:56:04,VALID,1010.61,VALID,0,VALID,104,VALID,0,VALID,24.5125,VALID,2,VALID,0,
2014-04-22, 00:57:04,VALID,1010.59,VALID,0,VALID,104,VALID,0,VALID,24.493,VALID,2,VALID,0,
2014-04-22, 00:58:04,VALID,1010.55,VALID,0,VALID,104,VALID,0,VALID,24.493,VALID,2,VALID,0,
2014-04-22, 00:59:04,VALID,1010.54,VALID,0,VALID,104,VALID,0,VALID,24.493,VALID,2,VALID,0,
2014-04-22, 01:00:04,VALID,1010.49,VALID,0,VALID,104,VALID,0,VALID,24.4735,VALID,13,VALID,0,
2014-04-22, 01:01:04,VALID,1010.49,VALID,0,VALID,104,VALID,0,VALID,24.4735,VALID,13,VALID,0,
2014-04-22, 01:02:04,VALID,1010.49,VALID,0,VALID,104,VALID,0,VALID,24.4735,VALID,13,VALID,0,
2014-04-22, 01:03:04,VALID,1010.46,VALID,0,VALID,104,VALID,0,VALID,24.454,VALID,13,VALID,0,
2014-04-22, 01:04:04,VALID,1010.44,VALID,0,VALID,104,VALID,0,VALID,24.454,VALID,13,VALID,0,
2014-04-22, 01:05:04,VALID,1010.44,VALID,0,VALID,104,VALID,0,VALID,24.4345,VALID,13,VALID,0,
2014-04-22, 01:06:04,VALID,1010.42,VALID,0,VALID,104,VALID,0,VALID,24.4345,VALID,13,VALID,0,
2014-04-22, 01:07:04,VALID,1010.41,VALID,0,VALID,104,VALID,0,VALID,24.4345,VALID,13,VALID,0,
2014-04-22, 01:08:04,VALID,1010.4,VALID,0,VALID,104,VALID,0,VALID,24.4132,VALID,13,VALID,0,
2014-04-22, 01:09:04,VALID,1010.41,VALID,0,VALID,104,VALID,0,VALID,24.4345,VALID,13,VALID,0,
2014-04-22, 01:10:04,VALID,1010.44,VALID,0,VALID,104,VALID,0,VALID,24.415,VALID,13,VALID,0,
2014-04-22, 01:11:04,VALID,1010.46,VALID,0,VALID,104,VALID,0,VALID,24.3937,VALID,13,VALID,0,
2014-04-22, 01:12:04,VALID,1010.45,VALID,0,VALID,104,VALID,0,VALID,24.415,VALID,13,VALID,0,
2014-04-22, 01:13:04,VALID,1010.47,VALID,0,VALID,104,VALID,0,VALID,24.415,VALID,13,VALID,0,
2014-04-22, 01:14:04,VALID,1010.45,VALID,0,VALID,104,VALID,0,VALID,24.415,VALID,13,VALID,0,
2014-04-22, 01:15:04,VALID,1010.43,VALID,0,VALID,104,VALID,0,VALID,24.4169,VALID,13,VALID,0,
2014-04-22, 01:16:04,VALID,1010.41,VALID,0,VALID,104,VALID,0,VALID,24.3956,VALID,13,VALID,0,
2014-04-22, 01:17:04,VALID,1010.35,VALID,0,VALID,104,VALID,0,VALID,24.3956,VALID,13,VALID,0,
2014-04-22, 01:18:04,VALID,1010.33,VALID,0,VALID,104,VALID,0,VALID,24.3956,VALID,13,VALID,0,
2014-04-22, 01:19:04,VALID,1010.3,VALID,0,VALID,104,VALID,0,VALID,24.3742,VALID,13,VALID,0,
2014-04-22, 01:20:04,VALID,1010.29,VALID,0,VALID,104,VALID,0,VALID,24.3956,VALID,13,VALID,0,
2014-04-22, 01:21:04,VALID,1010.27,VALID,0,VALID,104,VALID,0,VALID,24.3956,VALID,13,VALID,0,
2014-04-22, 01:22:04,VALID,1010.28,VALID,0,VALID,104,VALID,0,VALID,24.3956,VALID,13,VALID,0,
2014-04-22, 01:23:04,VALID,1010.3,VALID,0,VALID,104,VALID,0,VALID,24.3956,VALID,13,VALID,0,
2014-04-22, 01:24:04,VALID,1010.28,VALID,0,VALID,104,VALID,0,VALID,24.3761,VALID,13,VALID,0,
2014-04-22, 01:25:04,VALID,1010.25,VALID,0,VALID,104,VALID,0,VALID,24.3761,VALID,13,VALID,0,
2014-04-22, 01:26:04,VALID,1010.27,VALID,0,VALID,104,VALID,0,VALID,24.3956,VALID,13,VALID,0,
2014-04-22, 01:27:04,VALID,1010.29,VALID,0,VALID,104,VALID,0,VALID,24.3956,VALID,102,VALID,0,
2014-04-22, 01:28:04,VALID,1010.31,VALID,0,VALID,104,VALID,0,VALID,24.415,VALID,122,VALID,0,
2014-04-22, 01:29:04,VALID,1010.37,VALID,0,VALID,104,VALID,0,VALID,24.415,VALID,156,VALID,0,
2014-04-22, 01:30:04,VALID,1010.34,VALID,0,VALID,104,VALID,0,VALID,24.454,VALID,182,VALID,0,
2014-04-22, 01:31:04,VALID,1010.33,VALID,0,VALID,104,VALID,0,VALID,24.454,VALID,189,VALID,0,
2014-04-22, 01:32:04,VALID,1010.32,VALID,0,VALID,104,VALID,0,VALID,24.4735,VALID,177,VALID,0,
2014-04-22, 01:33:04,VALID,1010.25,VALID,0,VALID,104,VALID,0,VALID,24.4735,VALID,137,VALID,0,
2014-04-22, 01:34:04,VALID,1010.22,VALID,0,VALID,104,VALID,0,VALID,24.493,VALID,137,VALID,0,
2014-04-22, 01:35:04,VALID,1010.2,VALID,0,VALID,104,VALID,0,VALID,24.493,VALID,137,VALID,0,
2014-04-22, 01:36:04,VALID,1010.18,VALID,0,VALID,104,VALID,0,VALID,24.4735,VALID,137,VALID,0,
2014-04-22, 01:37:04,VALID,1010.16,VALID,0,VALID,104,VALID,0,VALID,24.4735,VALID,137,VALID,0,
2014-04-22, 01:38:04,VALID,1010.15,VALID,0,VALID,104,VALID,0,VALID,24.454,VALID,137,VALID,0,
2014-04-22, 01:39:04,VALID,1010.17,VALID,0,VALID,104,VALID,0,VALID,24.454,VALID,137,VALID,0,
2014-04-22, 01:40:04,VALID,1010.17,VALID,0,VALID,104,VALID,0,VALID,24.4522,VALID,137,VALID,0,
2014-04-22, 01:41:04,VALID,1010.15,VALID,0,VALID,104,VALID,0,VALID,24.4754,VALID,137,VALID,0,
2014-04-22, 01:42:04,VALID,1010.15,VALID,0,VALID,104,VALID,0,VALID,24.454,VALID,137,VALID,0,
2014-04-22, 01:43:04,VALID,1010.14,VALID,0,VALID,104,VALID,0,VALID,24.4559,VALID,137,VALID,0,
2014-04-22, 01:44:04,VALID,1010.13,VALID,0,VALID,104,VALID,0,VALID,24.4345,VALID,137,VALID,0,
2014-04-22, 01:45:04,VALID,1010.13,VALID,0,VALID,104,VALID,0,VALID,24.4345,VALID,137,VALID,0,
2014-04-22, 01:46:04,VALID,1010.12,VALID,0,VALID,104,VALID,0,VALID,24.415,VALID,137,VALID,0,
2014-04-22, 01:47:04,VALID,1010.12,VALID,0,VALID,104,VALID,0,VALID,24.4364,VALID,131,VALID,0,
2014-04-22, 01:48:04,VALID,1010.16,VALID,0,VALID,104,VALID,0,VALID,24.415,VALID,131,VALID,0,
2014-04-22, 01:49:04,VALID,1010.14,VALID,0,VALID,104,VALID,0,VALID,24.4169,VALID,131,VALID,0,
2014-04-22, 01:50:04,VALID,1010.16,VALID,0,VALID,104,VALID,0,VALID,24.3974,VALID,131,VALID,0,
2014-04-22, 01:51:04,VALID,1010.16,VALID,0,VALID,104,VALID,0,VALID,24.3761,VALID,131,VALID,0,
2014-04-22, 01:52:04,VALID,1010.14,VALID,0,VALID,104,VALID,0,VALID,24.4169,VALID,131,VALID,0,
2014-04-22, 01:53:04,VALID,1010.1,VALID,0,VALID,104,VALID,0,VALID,24.3974,VALID,131,VALID,0,
2014-04-22, 01:54:04,VALID,1010.12,VALID,0,VALID,104,VALID,0,VALID,24.3761,VALID,131,VALID,0,
2014-04-22, 01:55:04,VALID,1010.13,VALID,0,VALID,104,VALID,0,VALID,24.3974,VALID,131,VALID,0,
2014-04-22, 01:56:04,VALID,1010.16,VALID,0,VALID,104,VALID,0,VALID,24.3974,VALID,131,VALID,0,
2014-04-22, 01:57:04,VALID,1010.14,VALID,0,VALID,104,VALID,0,VALID,24.3566,VALID,131,VALID,0,
2014-04-22, 01:58:04,VALID,1010.13,VALID,0,VALID,104,VALID,0,VALID,24.3566,VALID,131,VALID,0,
2014-04-22, 01:59:04,VALID,1010.1,VALID,0,VALID,104,VALID,0,VALID,24.3779,VALID,131,VALID,0,
2014-04-22, 02:00:04,VALID,1010.1,VALID,0,VALID,104,VALID,0,VALID,24.3371,VALID,131,VALID,0,
2014-04-22, 02:01:04,VALID,1010.09,VALID,0,VALID,104,VALID,0,VALID,24.3176,VALID,131,VALID,0,
2014-04-22, 02:02:04,VALID,1010.07,VALID,0,VALID,104,VALID,0,VALID,24.3371,VALID,131,VALID,0,
2014-04-22, 02:03:04,VALID,1010.06,VALID,0,VALID,104,VALID,0,VALID,24.3389,VALID,131,VALID,0,
2014-04-22, 02:04:04,VALID,1010.06,VALID,0,VALID,104,VALID,0,VALID,24.3176,VALID,131,VALID,0,
2014-04-22, 02:05:04,VALID,1010.02,VALID,0,VALID,104,VALID,0,VALID,24.3389,VALID,131,VALID,0,
2014-04-22, 02:06:04,VALID,1010.01,VALID,0,VALID,104,VALID,0,VALID,24.2981,VALID,131,VALID,0,
2014-04-22, 02:07:04,VALID,1010.01,VALID,0,VALID,104,VALID,0,VALID,24.2786,VALID,131,VALID,0,
2014-04-22, 02:08:04,VALID,1009.98,VALID,0,VALID,104,VALID,0,VALID,24.2591,VALID,131,VALID,0,
2014-04-22, 02:09:04,VALID,1009.95,VALID,0,VALID,104,VALID,0,VALID,24.2591,VALID,131,VALID,0,
2014-04-22, 02:10:04,VALID,1009.93,VALID,0,VALID,104,VALID,0,VALID,24.2591,VALID,131,VALID,0,
2014-04-22, 02:11:04,VALID,1009.9,VALID,0,VALID,104,VALID,0,VALID,24.2396,VALID,131,VALID,0,
2014-04-22, 02:12:04,VALID,1009.87,VALID,0,VALID,104,VALID,0,VALID,24.2396,VALID,131,VALID,0,
2014-04-22, 02:13:04,VALID,1009.88,VALID,0,VALID,104,VALID,0,VALID,24.2396,VALID,131,VALID,0,
2014-04-22, 02:14:04,VALID,1009.86,VALID,0,INVALID,109.071,VALID,0,VALID,24.2202,VALID,131,VALID,0,
2014-04-22, 02:15:04,VALID,1009.88,VALID,0,INVALID,109.132,VALID,0,VALID,24.2007,VALID,56,VALID,0,
2014-04-22, 02:16:04,VALID,1009.82,VALID,0,INVALID,109.178,VALID,0,VALID,24.1617,VALID,56,VALID,0,
2014-04-22, 02:17:04,VALID,1009.81,VALID,0,INVALID,109.193,VALID,0,VALID,24.1617,VALID,56,VALID,0,
2014-04-22, 02:18:04,VALID,1009.78,VALID,0,INVALID,109.231,VALID,0,VALID,24.1422,VALID,56,VALID,0,
2014-04-22, 02:19:04,VALID,1009.73,VALID,0,INVALID,109.262,VALID,0,VALID,24.1227,VALID,56,VALID,0,
2014-04-22, 02:20:04,VALID,1009.7,VALID,0,INVALID,109.315,VALID,0,VALID,24.1227,VALID,56,VALID,0,
2014-04-22, 02:21:04,VALID,1009.67,VALID,0,INVALID,109.346,VALID,0,VALID,24.1227,VALID,56,VALID,0,
2014-04-22, 02:22:04,VALID,1009.66,VALID,0,INVALID,109.376,VALID,0,VALID,24.1032,VALID,56,VALID,0,
2014-04-22, 02:23:04,VALID,1009.67,VALID,0,INVALID,109.407,VALID,0,VALID,24.0837,VALID,56,VALID,0,
2014-04-22, 02:24:04,VALID,1009.71,VALID,0,INVALID,109.407,VALID,0,VALID,24.0837,VALID,56,VALID,0,
2014-04-22, 02:25:04,VALID,1009.72,VALID,0,INVALID,109.498,VALID,0,VALID,24.0837,VALID,56,VALID,0,
2014-04-22, 02:26:04,VALID,1009.73,VALID,0,INVALID,109.552,VALID,0,VALID,24.0837,VALID,56,VALID,0,
2014-04-22, 02:27:04,VALID,1009.75,VALID,0,INVALID,109.567,VALID,0,VALID,24.0856,VALID,56,VALID,0,
2014-04-22, 02:28:04,VALID,1009.76,VALID,0,INVALID,109.635,VALID,0,VALID,24.0837,VALID,56,VALID,0,
2014-04-22, 02:29:04,VALID,1009.77,VALID,0,INVALID,109.643,VALID,0,VALID,24.0856,VALID,56,VALID,0,
2014-04-22, 02:30:04,VALID,1009.79,VALID,0,INVALID,109.696,VALID,0,VALID,24.0856,VALID,56,VALID,0,
2014-04-22, 02:31:04,VALID,1009.84,VALID,0,INVALID,109.742,VALID,0,VALID,24.0856,VALID,56,VALID,0,
2014-04-22, 02:32:04,VALID,1009.81,VALID,0,INVALID,109.78,VALID,0,VALID,24.0837,VALID,56,VALID,0,
2014-04-22, 02:33:04,VALID,1009.86,VALID,0,INVALID,109.818,VALID,0,VALID,24.1051,VALID,56,VALID,0,
2014-04-22, 02:34:04,VALID,1009.85,VALID,0,INVALID,109.895,VALID,0,VALID,24.0643,VALID,56,VALID,0,
2014-04-22, 02:35:04,VALID,1009.86,VALID,0,INVALID,109.918,VALID,0,VALID,24.0837,VALID,56,VALID,0,
2014-04-22, 02:36:04,VALID,1009.86,VALID,0,INVALID,109.933,VALID,0,VALID,24.0837,VALID,56,VALID,0,
2014-04-22, 02:37:04,VALID,1009.86,VALID,0,INVALID,109.994,VALID,0,VALID,24.0643,VALID,56,VALID,0,
2014-04-22, 02:38:04,VALID,1009.85,VALID,0,INVALID,110.055,VALID,0,VALID,24.0643,VALID,56,VALID,0,
2014-04-22, 02:39:04,VALID,1009.82,VALID,0.5,INVALID,110.055,VALID,0,VALID,24.0643,VALID,56,VALID,0,
2014-04-22, 02:40:04,VALID,1009.84,VALID,0,INVALID,110.07,VALID,0,VALID,24.0643,VALID,56,VALID,0,
2014-04-22, 02:41:04,VALID,1009.84,VALID,0,INVALID,110.116,VALID,0,VALID,24.0643,VALID,56,VALID,0,
2014-04-22, 02:42:04,VALID,1009.86,VALID,0,INVALID,110.116,VALID,0,VALID,24.0643,VALID,56,VALID,0,
2014-04-22, 02:43:04,VALID,1009.85,VALID,0,INVALID,110.162,VALID,0,VALID,24.0837,VALID,56,VALID,0,
2014-04-22, 02:44:04,VALID,1009.85,VALID,0,INVALID,110.215,VALID,0,VALID,24.0643,VALID,56,VALID,0,
2014-04-22, 02:45:04,VALID,1009.85,VALID,0,INVALID,110.2,VALID,0,VALID,24.0448,VALID,56,VALID,0,
2014-04-22, 02:46:04,VALID,1009.84,VALID,0,INVALID,110.192,VALID,0,VALID,24.0643,VALID,56,VALID,0,
2014-04-22, 02:47:04,VALID,1009.83,VALID,0,INVALID,110.215,VALID,0,VALID,24.0643,VALID,56,VALID,0,
2014-04-22, 02:48:04,VALID,1009.79,VALID,0,INVALID,110.261,VALID,0,VALID,24.0643,VALID,56,VALID,0,
2014-04-22, 02:49:04,VALID,1009.79,VALID,0,INVALID,110.268,VALID,0,VALID,24.0448,VALID,56,VALID,0,
2014-04-22, 02:50:04,VALID,1009.77,VALID,0,INVALID,110.276,VALID,0,VALID,24.0448,VALID,56,VALID,0,
2014-04-22, 02:51:04,VALID,1009.79,VALID,0,INVALID,110.253,VALID,0,VALID,24.0448,VALID,56,VALID,0,
2014-04-22, 02:52:04,VALID,1009.71,VALID,0,INVALID,110.276,VALID,0,VALID,24.0429,VALID,56,VALID,0,
2014-04-22, 02:53:04,VALID,1009.72,VALID,0,INVALID,110.314,VALID,0,VALID,24.0429,VALID,56,VALID,0,
2014-04-22, 02:54:04,VALID,1009.7,VALID,0,INVALID,110.299,VALID,0,VALID,24.0643,VALID,56,VALID,0,
2014-04-22, 02:55:04,VALID,1009.68,VALID,0,INVALID,110.307,VALID,0,VALID,24.0643,VALID,56,VALID,0,
2014-04-22, 02:56:04,VALID,1009.68,VALID,0,INVALID,110.345,VALID,0,VALID,24.0643,VALID,55,VALID,0,
2014-04-22, 02:57:04,VALID,1009.69,VALID,0,INVALID,110.352,VALID,0,VALID,24.0235,VALID,56,VALID,0,
2014-04-22, 02:58:04,VALID,1009.66,VALID,0,INVALID,110.352,VALID,0,VALID,24.0448,VALID,56,VALID,0,
2014-04-22, 02:59:04,VALID,1009.69,VALID,0,INVALID,110.368,VALID,0,VALID,24.0448,VALID,56,VALID,0,
2014-04-22, 03:00:04,VALID,1009.7,VALID,0,INVALID,110.368,VALID,0,VALID,24.0253,VALID,56,VALID,0,
2014-04-22, 03:01:04,VALID,1009.71,VALID,0,INVALID,110.375,VALID,0,VALID,24.0448,VALID,56,VALID,0,
2014-04-22, 03:02:04,VALID,1009.74,VALID,0,INVALID,110.36,VALID,0,VALID,24.0253,VALID,56,VALID,0,
2014-04-22, 03:03:04,VALID,1009.74,VALID,0,INVALID,110.39,VALID,0,VALID,24.0448,VALID,56,VALID,0,
2014-04-22, 03:04:04,VALID,1009.74,VALID,0,INVALID,110.413,VALID,0,VALID,24.0235,VALID,56,VALID,0,
2014-04-22, 03:05:04,VALID,1009.77,VALID,0,INVALID,110.383,VALID,0,VALID,24.0643,VALID,56,VALID,0,
2014-04-22, 03:06:04,VALID,1009.76,VALID,0,INVALID,110.406,VALID,0,VALID,24.0643,VALID,56,VALID,0,
2014-04-22, 03:07:04,VALID,1009.78,VALID,0,INVALID,110.39,VALID,0,VALID,24.0643,VALID,55,VALID,0,
2014-04-22, 03:08:04,VALID,1009.82,VALID,0,INVALID,110.383,VALID,0,VALID,24.0643,VALID,55,VALID,0,
2014-04-22, 03:09:04,VALID,1009.82,VALID,0,INVALID,110.413,VALID,0,VALID,24.0837,VALID,56,VALID,0,
2014-04-22, 03:10:04,VALID,1009.8,VALID,0,INVALID,110.413,VALID,0,VALID,24.1032,VALID,56,VALID,0,
2014-04-22, 03:11:04,VALID,1009.81,VALID,0,INVALID,110.406,VALID,0,VALID,24.1032,VALID,4,VALID,0,
2014-04-22, 03:12:04,VALID,1009.83,VALID,0,INVALID,110.39,VALID,0,VALID,24.1032,VALID,4,VALID,0,
2014-04-22, 03:13:04,VALID,1009.78,VALID,0,INVALID,110.421,VALID,0,VALID,24.0837,VALID,4,VALID,0,
2014-04-22, 03:14:04,VALID,1009.82,VALID,0,INVALID,110.459,VALID,0,VALID,24.1032,VALID,4,VALID,0,
2014-04-22, 03:15:04,VALID,1009.82,VALID,0,INVALID,110.436,VALID,0,VALID,24.1032,VALID,4,VALID,0,
2014-04-22, 03:16:04,VALID,1009.85,VALID,0,INVALID,110.436,VALID,0,VALID,24.1032,VALID,4,VALID,0,
2014-04-22, 03:17:04,VALID,1009.85,VALID,0,INVALID,110.436,VALID,0,VALID,24.1032,VALID,4,VALID,0,
2014-04-22, 03:18:04,VALID,1009.85,VALID,0,INVALID,110.451,VALID,0,VALID,24.1032,VALID,4,VALID,0,
2014-04-22, 03:19:04,VALID,1009.81,VALID,0,INVALID,110.467,VALID,0,VALID,24.1014,VALID,4,VALID,0,
2014-04-22, 03:20:04,VALID,1009.8,VALID,0,INVALID,110.451,VALID,0,VALID,24.1032,VALID,4,VALID,0,
2014-04-22, 03:21:04,VALID,1009.76,VALID,0,INVALID,110.444,VALID,0,VALID,24.1014,VALID,4,VALID,0,
2014-04-22, 03:22:04,VALID,1009.74,VALID,0,INVALID,110.451,VALID,0,VALID,24.1227,VALID,4,VALID,0,
2014-04-22, 03:23:04,VALID,1009.75,VALID,0,INVALID,110.482,VALID,0,VALID,24.1227,VALID,4,VALID,0,
2014-04-22, 03:24:04,VALID,1009.72,VALID,0,INVALID,110.52,VALID,0,VALID,24.1227,VALID,4,VALID,0,
2014-04-22, 03:25:04,VALID,1009.73,VALID,0,INVALID,110.505,VALID,0,VALID,24.1032,VALID,4,VALID,0,
2014-04-22, 03:26:04,VALID,1009.74,VALID,0,INVALID,110.497,VALID,0,VALID,24.1032,VALID,4,VALID,0,
2014-04-22, 03:27:04,VALID,1009.75,VALID,0,INVALID,110.535,VALID,0,VALID,24.1032,VALID,4,VALID,0,
2014-04-22, 03:28:04,VALID,1009.73,VALID,0,INVALID,110.543,VALID,0,VALID,24.1032,VALID,4,VALID,0,
2014-04-22, 03:29:04,VALID,1009.73,VALID,0,INVALID,110.528,VALID,0,VALID,24.1032,VALID,4,VALID,0,
2014-04-22, 03:30:04,VALID,1009.77,VALID,0,INVALID,110.581,VALID,0,VALID,24.1051,VALID,4,VALID,0,
2014-04-22, 03:31:04,VALID,1009.75,VALID,0,INVALID,110.566,VALID,0,VALID,24.1032,VALID,4,VALID,0,
2014-04-22, 03:32:04,VALID,1009.76,VALID,0,INVALID,110.589,VALID,0,VALID,24.1032,VALID,4,VALID,0,
2014-04-22, 03:33:04,VALID,1009.78,VALID,0,INVALID,110.596,VALID,0,VALID,24.1227,VALID,4,VALID,0,
2014-04-22, 03:34:04,VALID,1009.8,VALID,0,INVALID,110.573,VALID,0,VALID,24.1032,VALID,4,VALID,0,
2014-04-22, 03:35:04,VALID,1009.81,VALID,0,INVALID,110.566,VALID,0,VALID,24.1032,VALID,4,VALID,0,
2014-04-22, 03:36:04,VALID,1009.82,VALID,0,INVALID,110.634,VALID,0,VALID,24.1032,VALID,4,VALID,0,
2014-04-22, 03:37:04,VALID,1009.85,VALID,0,INVALID,110.604,VALID,0,VALID,24.1032,VALID,4,VALID,0,
2014-04-22, 03:38:04,VALID,1009.83,VALID,0,INVALID,110.604,VALID,0,VALID,24.1032,VALID,4,VALID,0,
2014-04-22, 03:39:04,VALID,1009.82,VALID,0,INVALID,110.612,VALID,0,VALID,24.0837,VALID,4,VALID,0,
2014-04-22, 03:40:04,VALID,1009.81,VALID,0,INVALID,110.619,VALID,0,VALID,24.1032,VALID,4,VALID,0,
2014-04-22, 03:41:04,VALID,1009.81,VALID,0,INVALID,110.612,VALID,0,VALID,24.1032,VALID,4,VALID,0,
2014-04-22, 03:42:04,VALID,1009.74,VALID,0,INVALID,110.634,VALID,0,VALID,24.1032,VALID,4,VALID,0,
2014-04-22, 03:43:04,VALID,1009.75,VALID,0,INVALID,110.642,VALID,0,VALID,24.1032,VALID,4,VALID,0,
2014-04-22, 03:44:04,VALID,1009.71,VALID,0,INVALID,110.642,VALID,0,VALID,24.1032,VALID,4,VALID,0,
2014-04-22, 03:45:04,VALID,1009.74,VALID,0,INVALID,110.68,VALID,0,VALID,24.1032,VALID,4,VALID,0,
2014-04-22, 03:46:04,VALID,1009.72,VALID,0,INVALID,110.695,VALID,0,VALID,24.1032,VALID,4,VALID,0,
2014-04-22, 03:47:04,VALID,1009.73,VALID,0,INVALID,110.688,VALID,0,VALID,24.1032,VALID,4,VALID,0,
2014-04-22, 03:48:04,VALID,1009.71,VALID,0,INVALID,110.703,VALID,0,VALID,24.0837,VALID,4,VALID,0,
2014-04-22, 03:49:04,VALID,1009.73,VALID,0,INVALID,110.695,VALID,0,VALID,24.0837,VALID,4,VALID,0,
2014-04-22, 03:50:04,VALID,1009.69,VALID,0,INVALID,110.711,VALID,0,VALID,24.0837,VALID,4,VALID,0,
2014-04-22, 03:51:04,VALID,1009.65,VALID,0,INVALID,110.711,VALID,0,VALID,24.0643,VALID,4,VALID,0,
2014-04-22, 03:52:04,VALID,1009.65,VALID,0,INVALID,110.741,VALID,0,VALID,24.0837,VALID,4,VALID,0,
2014-04-22, 03:53:04,VALID,1009.66,VALID,0,INVALID,110.726,VALID,0,VALID,24.0643,VALID,4,VALID,0,
2014-04-22, 03:54:04,VALID,1009.69,VALID,0,INVALID,110.741,VALID,0,VALID,24.0448,VALID,4,VALID,0,
2014-04-22, 03:55:04,VALID,1009.65,VALID,0,INVALID,110.772,VALID,0,VALID,24.0661,VALID,4,VALID,0,
2014-04-22, 03:56:04,VALID,1009.65,VALID,0,INVALID,110.772,VALID,0,VALID,24.0661,VALID,4,VALID,0,
2014-04-22, 03:57:04,VALID,1009.64,VALID,0,INVALID,110.749,VALID,0,VALID,24.0661,VALID,4,VALID,0,
2014-04-22, 03:58:04,VALID,1009.68,VALID,0,INVALID,110.734,VALID,0,VALID,24.0448,VALID,4,VALID,0,
2014-04-22, 03:59:04,VALID,1009.67,VALID,0,INVALID,110.772,VALID,0,VALID,24.0253,VALID,4,VALID,0,
2014-04-22, 04:00:04,VALID,1009.69,VALID,0,INVALID,110.84,VALID,0,VALID,24.0448,VALID,4,VALID,0,
2014-04-22, 04:01:04,VALID,1009.7,VALID,0,INVALID,110.833,VALID,0,VALID,24.0253,VALID,4,VALID,0,
2014-04-22, 04:02:04,VALID,1009.68,VALID,0,INVALID,110.848,VALID,0,VALID,24.0253,VALID,4,VALID,0,
2014-04-22, 04:03:04,VALID,1009.67,VALID,0,INVALID,110.833,VALID,0,VALID,24.0058,VALID,4,VALID,0,
2014-04-22, 04:04:04,VALID,1009.69,VALID,0,INVALID,110.84,VALID,0,VALID,24.0253,VALID,4,VALID,0,